Platzwetter & Webcam am Flugplatz Wels

Flugwetter Linz LOWL

[Quelle: ADDS]
METAR
LOWL 210150Z AUTO 22002KT 9999 NSC 17/15 Q1017 =
TAF
LOWL 202315Z 2100/2124 VRB02KT CAVOK TX30/2114Z TN16/2103Z BECMG 2107/2109 27007KT 9999 FEW050 BECMG 2113/2115 FEW050CB PROB30 TEMPO 2115/2117 29020G30KT TSRA FEW040CB BKN045 TEMPO 2117/2124 29015KT SHRA SCT030 BKN040 =

Flugwetter Salzburg LOWS

[Quelle: ADDS]
METAR
LOWS 210150Z AUTO 15004KT 9999 NSC 16/14 Q1018 =
TAF
LOWS 202315Z 2100/2124 15005KT CAVOK TX28/2113Z TN15/2200Z BECMG 2107/2109 34007KT 9999 FEW060 SCT120 TEMPO 2111/2119 29013G25KT FEW050CB BKN300 PROB40 TEMPO 2114/2119 29020G35KT 4000 TSRA SCT030CB BKN040 TEMPO 2119/2124 30010KT 6000 SHRA SCT020 BKN035 =

Webcam - letzten 24 Stunden

  • 0
  • 1
  • 2
  • 3
  • 4
  • 5
  • 6
  • 7
  • 8
  • 9
  • 10
  • 11
  • 12
  • 13
  • 14
  • 15
  • 16
  • 17
  • 18
  • 19
  • 20
  • 21
  • 22
  • 23

    Wind - Verlauf

    Windrichtung - Verlauf

    Temperatur - Verlauf

    Relative Luftfeuchtigkeit - Verlauf

    Luftdruck - Verlauf


    JU 52 Nostalgie-Rundflüge - hier am Flugplatz Wels!

    Tickets, Termine und Infos, hier am Flugplatz Wels. Tickethotline +43 7242 26499 0

    Pilot für einen Tag - Erfülle Dir den Traum vom Fliegen!

    Werde einen Tag lang Pilot bei und mit dem Fliegerclub Weiße Möwe in Wels!

    Stadt - Wels

    Ausflugsziele & Sehenswürdigkeiten
    in Wels und Umgebung

    Cookies erleichtern die Bereitstellung unserer Dienste. Mit der Nutzung unserer Dienste erklären Sie sich damit einverstanden, dass wir Cookies verwenden.
    Weitere Informationen Ok